This is the latest recevied weather packets stored in our database for station/object PY2UEP-1. If no packets are shown the sender has not sent any weather packets the latest 10 day(s).
| Time | Temp. | Humidity | Pressure | Rain* | Wind** | Luminosity | Snow |
|---|---|---|---|---|---|---|---|
| 1788126606 | 27.78° C | 64% | 1013.2 hPa | 0 mm | - | - | - |
| 1788126306 | 27.78° C | 65% | 1013.2 hPa | 0 mm | - | - | - |
| 1788126006 | 27.78° C | 65% | 1013.2 hPa | 0 mm | - | - | - |
| 1788125706 | 28.33° C | 65% | 1012.9 hPa | 0 mm | - | - | - |
| 1788125406 | 28.33° C | 66% | 1012.9 hPa | 0 mm | - | - | - |
| 1788125106 | 28.33° C | 67% | 1013 hPa | 0 mm | - | - | - |
| 1788124806 | 28.33° C | 68% | 1013 hPa | 0 mm | - | - | - |
| 1788124506 | 28.33° C | 68% | 1013 hPa | 0 mm | - | - | - |
| 1788124206 | 28.33° C | 67% | 1013 hPa | 0 mm | - | - | - |
| 1788123906 | 28.33° C | 66% | 1012.8 hPa | 0 mm | - | - | - |
| 1788123606 | 28.89° C | 65% | 1012.8 hPa | 0 mm | - | - | - |
| 1788123306 | 28.89° C | 65% | 1012.7 hPa | 0 mm | - | - | - |
| 1788123006 | 29.44° C | 65% | 1012.7 hPa | 0 mm | - | - | - |
| 1788122706 | 30° C | 65% | 1012.6 hPa | 0 mm | - | - | - |
| 1788122406 | 30° C | 63% | 1012.6 hPa | 0 mm | - | - | - |
| 1788122106 | 30° C | 61% | 1012.4 hPa | 0 mm | - | - | - |
| 1788121806 | 30° C | 60% | 1012.3 hPa | 0 mm | - | - | - |
| 1788121506 | 30.56° C | 59% | 1012.2 hPa | 0 mm | - | - | - |
| 1788121206 | 31.11° C | 56% | 1012.1 hPa | 0 mm | - | - | - |
| 1788120906 | 31.11° C | 56% | 1012.1 hPa | 0 mm | - | - | - |
| 1788120606 | 31.11° C | 56% | 1012 hPa | 0 mm | - | - | - |
| 1788120306 | 31.11° C | 54% | 1012 hPa | 0 mm | - | - | - |
| 1788120006 | 31.11° C | 52% | 1012 hPa | 0 mm | - | - | - |
| 1788119706 | 31.11° C | 51% | 1012 hPa | 0 mm | - | - | - |
| 1788119406 | 31.11° C | 54% | 1012.1 hPa | 0 mm | - | - | - |
* Rain since midnight (hover to see other rain measurements)
** Current wind speed in m/s (hover to see current wind gust speed)